Regional Weather Roundup
Issued by NWS

Home | Current Version | Previous Version | Graphics & Text | Print | Product List | Glossary On
Versions: 1 2 3 4 5 6 7 8 9 10 11 12 13 14 15 16 17 18 19 20 21 22 23 24 25 26 27 28 29 30 31 32 33 34 35 36 37 38 39 40 41 42 43 44 45 46 47 48 49 50
000
ASUS43 KDMX 031507
RWRIA

WEATHER ROUNDUP FOR IOWA
NATIONAL WEATHER SERVICE DES MOINES IA
900 AM CST TUE MAR 03 2015

NOTE: "FAIR" INDICATES FEW OR NO CLOUDS BELOW 12,000 FEET WITH NO
SIGNIFICANT WEATHER AND/OR OBSTRUCTIONS TO VISIBILITY.

* - THESE STATIONS ARE NOT NWS STATIONS...THUS NOT UNDER NWS
QUALITY CONTROL.  THEY ALSO DO NOT REPORT WEATHER SUCH
AS PRECIPITATION OR FOG.

IAZ001>003-012>014-020>022-031>034-043>046-031600-
   NORTHWEST IOWA

CITY           SKY/WX    TMP DP  RH WIND       PRES   REMARKS
CARROLL *      CLOUDY    30  30 100 W7        29.68R FOG     WCI  23
CHEROKEE *     CLOUDY    28  28 100 W7        29.71R FOG     WCI  21
DENISON *      CLOUDY    30  30 100 W9        29.68R FOG     WCI  22
LE MARS *      CLOUDY    30  28  93 W9        29.73R FOG     WCI  22
ORANGE CITY *  LGT SNOW  28  25  86 W13       29.71R WCI  18
SHELDON *      CLOUDY    27  25  93 W8        29.70R WCI  18
SIOUX CITY     CLOUDY    30  28  92 NW6       29.73R FOG     WCI  24
SPENCER        LGT SNOW  27  22  81 W6        29.69R WCI  20
STORM LAKE *   CLOUDY    27  27 100 W9        29.69R FOG     WCI  17
$$

IAZ055>058-069>071-079>083-090>094-031600-
   SOUTHWEST IOWA

CITY           SKY/WX    TMP DP  RH WIND       PRES   REMARKS
ATLANTIC *     FOG       32  32 100 W7        29.69R VSB 1   WCI  26
AUDUBON *      MIX PCPN  32  28  86 W7        29.70R WCI  26
CLARINDA *     CLOUDY    36  36 100 SW8       29.72R FOG     WCI  29
COUNCIL BLFS * FOG       32  32 100 NW9       29.70R VSB 3/4 WCI  24
CRESTON *      FOG       32  32 100 SW10      29.68R VSB 1   WCI  24
HARLAN  *      CLOUDY    32  32 100 W9        29.73R FOG     WCI  24
LAMONI         MIX PCPN  33  32  96 SW10      29.68R VSB 1   WCI  25
RED OAK *      CLOUDY    34  34 100 SW8       29.70R FOG     WCI  27
SHENANDOAH *   CLOUDY    36  36 100 SW7       29.72R FOG     WCI  30
$$

IAZ047>049-059>061-072>074-084-031600-
   CENTRAL IOWA

CITY           SKY/WX    TMP DP  RH WIND       PRES   REMARKS
AMES           CLOUDY    31  29  92 S6        29.67S FOG     WCI  25
ANKENY *       CLOUDY    32  32 100 S7        29.68S FOG     WCI  26
CHARITON *     CLOUDY    32  32 100 SW9       29.68R FOG     WCI  24
DES MOINES     FRZ DRZL  33  31  92 SW7       29.69R VSB 1   WCI  27
GRINNELL*      MIX PCPN  30  30 100 S8        29.68F WCI  23
KNOXVILLE *    CLOUDY    32  32 100 S7        29.66F FOG     WCI  26
MARSHALLTOWN   CLOUDY    29  28  96 S10       29.67R FOG     WCI  20
PELLA *        LGT RAIN  32  32 100 CALM      29.70R VSB 1
PERRY *          N/A     32  32 100 SW5       29.68R FOG     WCI  27
$$

IAZ004>006-015-016-023>025-035-036-031600-
   NORTH CENTRAL IOWA

CITY           SKY/WX    TMP DP  RH WIND       PRES   REMARKS
ALGONA *       MIX PCPN  27  27 100 SW5       29.68F WCI  21
CLARION *      CLOUDY    28  28 100 SW7       29.68S FOG     WCI  21
ESTHERVILLE    LGT SNOW  24  22  91 W7        29.68R FOG     WCI  16
FORT DODGE *   CLOUDY    28  27  93 W3        29.69S
MASON CITY     CLOUDY    26  24  92 SW7       29.69S FOG     WCI  18
FOREST CITY *  MIX PCPN  27  27 100 S5        29.67F WCI  21
IOWA FALLS *   MIX PCPN  30  28  93 SW7       29.69R WCI  23
$$

IAZ007>011-017>019-026>030-037>042-050>054-066-031600-
   NORTHEAST IOWA

CITY           SKY/WX    TMP DP  RH WIND       PRES   REMARKS
CEDAR RAPIDS   CLOUDY    29  29 100 S15       29.69S FOG     WCI  18
CHARLES CITY * FOG       25  27 100 S5        29.69R VSB 1/2 WCI  19
CLINTON *      CLOUDY    30  27  86 S12       29.75S WCI  21
DECORAH *      FOG       23  23 100 S5        29.68S VSB 3/4 WCI  17
DUBUQUE        CLOUDY    28  27  96 S16       29.68F FOG     WCI  16
MONTICELLO *   CLOUDY    30  30 100 S13G20    29.70F FOG     WCI  20
OELWEIN *      CLOUDY    28  28 100 SW13      29.68F FOG     WCI  18
WATERLOO       FRZ RAIN  29  29 100 SW9       29.69S FOG     WCI  20
$$

IAZ064-065-067-068-078-031600-
   EAST CENTRAL IOWA

CITY           SKY/WX    TMP DP  RH WIND       PRES   REMARKS
DAVENPORT      CLOUDY    30  27  88 S17       29.72F FOG     WCI  18
IOWA CITY      CLOUDY    30  29  96 S12       29.73F FOG     WCI  20
MT. PLEASANT * CLOUDY    30  30 100 S13       29.71F FOG     WCI  20
MUSCATINE *    CLOUDY    32  30  93 S13       29.73S FOG     WCI  22
QUAD CITIES    CLOUDY    30  27  88 S8        29.72F FOG     WCI  22
$$

IAZ062-063-075>077-085>089-095>099-031600-
   SOUTHEAST IOWA

CITY           SKY/WX    TMP DP  RH WIND       PRES   REMARKS
BURLINGTON     CLOUDY    31  30  96 S12       29.72F FOG     WCI  22
FAIRFIELD *    FOG       30  30 100 S10       29.71S VSB 1   WCI  21
FORT MADISON * FOG       30  30 100 S9        29.73F VSB 1   WCI  22
KEOKUK *       CLOUDY    32  32 100 S12G18    29.73F FOG     WCI  23
OSKALOOSA *    CLOUDY    30  30 100 S6        29.70S FOG     WCI  24
CENTERVILLE *  CLOUDY    32  32 100 S13       29.70S WCI  22
OTTUMWA        FRZ RAIN  31  31 100 S8        29.69F FOG     WCI  23
WASHINGTON *   FOG       30  30 100 S10       29.71F VSB 3/4 WCI  21
$$

ABBREVIATIONS USED IN REMARKS
   TC - TEMPERATURES IN CELSIUS
  WCI - WIND CHILL INDEX
   HX - HEAT INDEX
  VSB - VISIBILITY
$$




USA.gov is the U.S. government's official web portal to all federal, state and local government web resources and services.